DW4360 Weather Reports


Display with metric or nautical units.
time (UTC)temp
F
wind
direction
speed
MPH
gust
MPH
rain 1hr
in
rain 24hr
in
rain mn
in
humidity
%
barometer
mb
20260906051816 62 323 0.0 0.0 0.00 0.00 0.01 76 1014.1
20260906050815 62 325 0.0 0.0 0.00 0.00 0.01 75 1014.3
20260906045814 63 325 0.0 0.0 0.00 0.00 0.01 75 1014.2
20260906044812 63 325 0.0 0.0 0.00 0.00 0.01 74 1014.3
20260906043812 63 328 0.0 0.0 0.00 0.00 0.01 74 1014.3
20260906040808 64 328 0.0 0.0 0.00 0.00 0.01 74 1014.5
20260906035808 64 328 0.0 0.0 0.00 0.00 0.01 72 1014.4
20260906034807 65 328 0.0 0.0 0.00 0.00 0.01 71 1014.3
20260906033806 66 328 0.0 0.0 0.00 0.00 0.01 70 1014.1
20260906032804 66 328 0.0 0.0 0.00 0.00 0.01 68 1014.0
20260906031803 67 328 0.0 0.0 0.00 0.00 0.01 66 1013.9
20260906030802 67 328 0.0 0.0 0.00 0.00 0.01 65 1013.9
20260906025802 68 328 0.0 0.0 0.00 0.00 0.01 62 1013.9
20260906024801 68 331 0.0 0.0 0.00 0.00 0.01 60 1013.8
20260906023759 68 332 0.0 0.0 0.00 0.00 0.01 58 1013.9
20260906022759 69 332 3.0 0.0 0.00 0.00 0.01 57 1013.9
20260906021758 69 332 0.0 0.0 0.00 0.00 0.01 57 1013.8
20260906020757 70 332 0.0 0.0 0.00 0.00 0.01 56 1013.9
20260906015755 71 333 0.0 0.0 0.00 0.00 0.01 55 1014.0
20260906014755 72 65 0.0 0.0 0.00 0.00 0.01 52 1014.0
20260906013753 72 66 0.0 0.0 0.00 0.00 0.01 50 1014.1
20260906012753 73 66 0.0 0.0 0.00 0.00 0.01 49 1014.0
20260906011752 74 309 0.0 0.0 0.00 0.00 0.01 50 1013.9
20260906004748 77 91 0.0 0.0 0.00 0.00 0.01 46 1014.0
20260906003747 78 95 0.0 0.0 0.00 0.00 0.01 45 1014.0
20260906001745 76 331 0.0 0.0 0.00 0.00 0.01 47 1013.9
20260906000745 76 331 0.0 0.0 0.00 0.00 0.01 48 1014.1
20260905235743 77 331 0.0 0.0 0.00 0.00 0.01 48 1014.0
20260905233741 74 331 0.0 0.0 0.00 0.00 0.01 52 1014.0
20260905232740 73 334 0.0 0.0 0.00 0.00 0.01 52 1014.2
20260905231739 73 334 0.0 0.0 0.00 0.00 0.01 53 1014.3
20260905230738 73 338 0.0 0.0 0.00 0.00 0.01 52 1014.4
20260905225737 73 338 0.0 0.0 0.00 0.00 0.01 54 1014.4
20260905224736 73 341 0.0 0.0 0.00 0.00 0.01 53 1014.4
20260905223735 72 244 0.0 0.0 0.00 0.00 0.01 52 1014.5
20260905221733 73 327 0.0 0.0 0.00 0.00 0.01 56 1014.7
20260905220732 73 328 0.0 0.0 0.00 0.00 0.01 51 1014.9
20260905215731 74 331 0.0 0.0 0.00 0.00 0.01 51 1014.8
20260905214730 75 306 0.0 0.0 0.00 0.00 0.01 49 1014.9
20260905213729 75 293 0.0 0.0 0.00 0.00 0.01 50 1015.0
20260905212728 74 338 0.0 0.0 0.00 0.00 0.01 52 1014.9
20260905205725 73 340 4.0 0.0 0.00 0.00 0.01 53 1015.2
20260905204724 72 344 0.0 0.0 0.00 0.00 0.01 54 1015.2
20260905203723 73 76 0.0 0.0 0.00 0.00 0.01 54 1015.2
20260905202722 72 335 0.0 0.0 0.00 0.00 0.01 58 1015.2
20260905201721 71 328 0.0 0.0 0.00 0.00 0.01 59 1015.2
20260905200720 71 80 0.0 0.0 0.00 0.00 0.01 61 1015.4
20260905195719 71 331 0.0 0.0 0.00 0.00 0.01 61 1015.4
20260905194718 71 331 0.0 0.0 0.00 0.00 0.01 60 1015.4
20260905193717 70 54 0.0 0.0 0.00 0.00 0.01 64 1015.6
20260905192716 70 343 0.0 0.0 0.00 0.00 0.01 63 1015.6
20260905191715 69 121 0.0 0.0 0.00 0.00 0.00 64 1015.8
20260905190714 69 120 0.0 0.0 0.00 0.00 0.00 66 1015.8
20260905185713 68 121 0.0 0.0 0.00 0.00 0.00 69 1015.9
20260905184712 68 317 0.0 0.0 0.00 0.00 0.00 67 1016.0
20260905183711 68 322 0.0 0.0 0.00 0.00 0.00 68 1016.1
20260905182710 68 328 0.0 0.0 0.00 0.00 0.00 70 1016.2
20260905181709 68 336 0.0 0.0 0.00 0.00 0.00 72 1016.2
20260905180708 67 345 0.0 0.0 0.00 0.00 0.00 73 1016.3
20260905175707 66 325 1.0 0.0 0.00 0.00 0.00 74 1016.3
20260905172704 63 329 0.0 0.0 0.00 0.00 0.00 82 1016.3
20260905171702 62 334 0.0 0.0 0.00 0.00 0.00 83 1016.4
20260905165700 60 55 0.0 0.0 0.00 0.00 0.00 89 1016.4
20260905164659 58 158 0.0 0.0 0.00 0.00 0.00 92 1016.4
20260905162657 58 172 0.0 0.0 0.00 0.00 0.00 93 1016.4
20260905161656 57 174 0.0 0.0 0.00 0.00 0.00 93 1016.5
20260905160656 58 175 0.0 0.0 0.00 0.00 0.00 94 1016.6
20260905155654 58 174 0.0 0.0 0.00 0.00 0.00 94 1016.5
20260905154654 58 174 0.0 0.0 0.00 0.00 0.00 94 1016.5
20260905153653 58 174 0.0 0.0 0.00 0.00 0.00 94 1016.5
20260905152651 57 175 0.0 0.0 0.00 0.00 0.07 94 1016.5
20260905151651 57 174 0.0 0.0 0.00 0.00 0.07 94 1016.5
20260905150649 57 174 0.0 0.0 0.00 0.00 0.07 94 1016.4
20260905145648 57 174 0.0 0.0 0.00 0.00 0.07 94 1016.4
20260905144647 57 174 0.0 0.0 0.00 0.00 0.07 94 1016.4
20260905143646 56 174 0.0 0.0 0.00 0.00 0.07 94 1016.4
20260905142645 56 174 0.0 0.0 0.00 0.00 0.07 94 1016.4
20260905141644 56 174 0.0 0.0 0.00 0.00 0.07 94 1016.3
20260905135643 57 174 0.0 0.0 0.00 0.00 0.07 94 1016.3
20260905134642 57 174 0.0 0.0 0.00 0.00 0.07 94 1016.3
20260905132639 56 174 0.0 0.0 0.00 0.00 0.07 94 1016.2
20260905131638 56 174 0.0 0.0 0.00 0.00 0.07 94 1016.1
20260905130637 56 174 0.0 0.0 0.00 0.00 0.07 94 1015.9
20260905125637 56 174 0.0 0.0 0.00 0.00 0.07 94 1015.9
20260905122633 57 174 0.0 0.0 0.00 0.00 0.07 94 1015.8
20260905121632 56 174 0.0 0.0 0.00 0.00 0.07 94 1015.8
20260905115630 56 174 0.0 0.0 0.00 0.00 0.07 93 1015.7
20260905112627 56 174 0.0 0.0 0.00 0.00 0.07 93 1015.8
20260905111626 56 174 0.0 0.0 0.00 0.00 0.07 93 1015.7
20260905110625 57 174 0.0 0.0 0.00 0.00 0.07 93 1015.7
20260905104623 57 173 0.0 0.0 0.00 0.00 0.07 94 1015.7
20260905103622 57 173 0.0 0.0 0.00 0.00 0.07 94 1015.8
20260905102621 56 173 0.0 0.0 0.00 0.00 0.07 93 1015.8
20260905101620 56 173 0.0 0.0 0.00 0.00 0.07 93 1015.8
20260905100619 56 173 0.0 0.0 0.00 0.00 0.07 93 1015.8
20260905092615 57 173 0.0 0.0 0.00 0.00 0.07 94 1015.6
20260905091614 57 173 0.0 0.0 0.00 0.00 0.07 93 1015.6
20260905085612 57 173 0.0 0.0 0.00 0.00 0.07 93 1015.6
20260905084611 57 173 0.0 0.0 0.00 0.00 0.07 93 1015.6
20260905082609 57 173 0.0 0.0 0.00 0.00 0.07 93 1015.4
20260905080607 57 173 0.0 0.0 0.00 0.00 0.07 93 1015.4
20260905075606 57 173 0.0 0.0 0.00 0.00 0.07 93 1015.3
20260905074605 57 173 0.0 0.0 0.00 0.00 0.07 93 1015.3
20260905073604 57 173 0.0 0.0 0.00 0.00 0.07 93 1015.2
20260905072603 57 173 0.0 0.0 0.00 0.00 0.07 93 1015.3
20260905071602 57 173 0.0 0.0 0.00 0.00 0.07 93 1015.3
20260905070601 57 173 0.0 0.0 0.00 0.00 0.07 93 1015.1
20260905065559 57 173 0.0 0.0 0.00 0.00 0.06 93 1015.1
20260905064559 57 173 0.0 0.0 0.00 0.00 0.06 93 1015.0
20260905063557 57 173 0.0 0.0 0.00 0.00 0.06 93 1014.9
20260905062557 57 173 0.0 0.0 0.00 0.00 0.06 93 1014.8
20260905061555 57 173 0.0 0.0 0.00 0.00 0.06 93 1014.6
20260905055553 57 173 0.0 0.0 0.00 0.00 0.06 93 1014.6
20260905054552 57 173 0.0 0.0 0.00 0.00 0.06 93 1014.7
20260905053551 57 173 0.0 0.0 0.00 0.00 0.06 93 1014.6